CZ-6A DEB

Satellite information

Favourite Embed

Satellite Type and Status

DEBRISIN ORBIT

Key statistics

Satellite CZ-6A DEB at a glance.

Uptime

1129

Days in orbit

Revolutions

≈ 14.1

Per day

Orbit

SSO

Sun Synchronous Orbit

Inclination

98.8

Latest

Satellite identification and parameters

Extended collection of information and parameters for CZ-6A DEB.

Object identification

Identified? True

Debris? True

Object name: CZ-6A DEB

International designator: 2022-151KJ

Object number (NORAD): 54530

Object ID (CCSDS): 54530

Country: PEOPLES REPUBLIC OF CHINA (PRC)

Current information (Y/N): Y

RCS size: SMALL

Orbital parameters

Period: 101.964 minutes

Inclination: 98.8241 deg

SMA: 7229.769 km

Apoapsis: 875.699 km

Periapsis: 827.569 km

RAAN: 348.1426 deg

Eccentricy: 0.0033286

Argument of periapsis: 123.2488 deg

Mean anomaly: 237.1881 deg

Mean motion: 14.12264918 rev/day

Mean motion (dot): 0.00000225 rev/day2

B* drag term: 0.00014539 1/REarth

Two-line elements (TLE)

Creation date: Dec. 12, 2025, 7:16 a.m.

Reference frame: TEME

Reference center: EARTH

Epoch: Dec. 11, 2025, 10:58 p.m. UTC

TLE line 0: 0 CZ-6A DEB

TLE line 1: 1 54530U 22151KJ 25345.95746042 .00000225 00000-0 14539-3 0 9998

TLE line 2: 2 54530 98.8241 348.1426 0033286 123.2488 237.1881 14.12264918158629

Live tracking on map

Real-time ground track for satellite CZ-6A DEB.

In-orbit conjunctions

A list of the most updated potential collisions computed for object CZ-6A DEB.

Target Orbit TCA Probability of collision Miss distance Type
COSMOS 1275 DEB LEO 2025-06-23 04:46:02 0.0004282556 103.0 (m) DEBRIS
CZ-6A DEB LEO 2025-01-01 21:04:06 0.0003991491 126.0 (m) DEBRIS

Associated space launch

Chinese satellite reported for atmospheric/ocean/environmental/spatial parameter research purposes, details TBD.

CZ-6A DEB was lifted into orbit during the mission ‘Long March 6A | Yunhai 3’, on board a Long March 6A space rocket.

The launch took place on Nov. 11, 2022, 10:52 p.m. from Launch Complex 9A.

For more information about the launch, click the button.

Launch to space Long March 6A | Yunhai 3
Long March 6A | Yunhai 3

Agency: N/A

Status: Launch Successful

Launch date: Nov. 11, 2022, 10:52 p.m. UTC

Rocket: Long March 6A

Launch pad: Launch Complex 9A

Location: Taiyuan Satellite Launch Center, People's Republic of China

...

Latest news about this satellite

There are no fresh news available about this satellite. Check back as we update our databases every day.


Newsletter sign-up

Weekly statistics, charts and insights to help you stay on top of the space industry.